Regional Weather Roundup
Issued by NWS Little Rock, AR

Home | Current Version | Previous Version | Graphics & Text | Print | Product List | Glossary On
Versions: 1 2 3 4 5 6 7 8 9 10 11 12 13 14 15 16 17 18 19 20 21 22 23 24 25 26 27 28 29 30 31 32 33 34 35 36 37 38 39 40 41 42 43 44 45 46 47 48 49 50
000
ASUS44 KLZK 191605
RWRLZK

WEATHER ROUNDUP FOR ARKANSAS
NATIONAL WEATHER SERVICE LITTLE ROCK AR
1100 AM CDT SUN OCT 19 2014

NOTE: "FAIR" INDICATES FEW OR NO CLOUDS BELOW 12,000 FEET WITH NO
SIGNIFICANT WEATHER AND/OR OBSTRUCTIONS TO VISIBILITY.

ARZ001-003-010-029-191700-
NORTHWEST ARKANSAS

CITY           SKY/WX    TMP DP  RH WIND       PRES   REMARKS
FAYETTEVILLE   MOSUNNY   60  49  66 S9        30.22S
FORT SMITH     MOSUNNY   60  49  66 E5        30.23S
HARRISON       SUNNY     57  47  69 S12       30.23F
BENTONVILLE    PTSUNNY   59  48  67 S7        30.22S
ROGERS         PTSUNNY   57  48  72 S6        30.23S
SILOAM SPGS    PTSUNNY   59  46  63 S5        30.23S
HIGHFILL       PTSUNNY   57  49  74 S8        30.21F
SPRINGDALE     PTSUNNY   59  50  72 S12       30.24S
$$

ARZ004-005-016-191700-
NORTH CENTRAL ARKANSAS

CITY           SKY/WX    TMP DP  RH WIND       PRES   REMARKS
BATESVILLE     SUNNY     59  45  58 SE5       30.26F
FLIPPIN        SUNNY     54  43  66 E3        30.25F
MTN HOME       SUNNY     57  46  66 VRB6      30.24F
$$

ARZ040-041-191700-
WEST CENTRAL ARKANSAS

CITY           SKY/WX    TMP DP  RH WIND       PRES   REMARKS
MENA           SUNNY     61  52  72 CALM      30.23S
MOUNT IDA      SUNNY     60  49  66 CALM      30.21F
$$

ARZ009-017-025-026-028-191700-
NORTHEAST ARKANSAS

CITY           SKY/WX    TMP DP  RH WIND       PRES   REMARKS
CORNING        FAIR      57  45  62 SE5       30.27F
JONESBORO      MOSUNNY   57  45  64 E6        30.25F
NEWPORT        MOSUNNY   58  46  64 E6        30.27F
WALNUT RIDGE   MOSUNNY   57  39  51 SE3       30.25F
BLYTHEVILLE    SUNNY     60  45  57 VRB6      30.26F
$$

ARZ022-023-033-042-044-191700-
CENTRAL ARKANSAS

CITY           SKY/WX    TMP DP  RH WIND       PRES   REMARKS
LITTLE ROCK    PTSUNNY   62  46  55 E8        30.25S
N LITTLE ROCK  PTSUNNY   61  50  65 E8        30.25S
JACKSONVILLE   SUNNY     61  47  60 E8        30.24F
SEARCY         SUNNY     60  48  64 SE6       30.26F
HOT SPRINGS    SUNNY     61  48  62 E6        30.24S
RUSSELLVILLE   SUNNY     61  47  59 VRB3      30.25S
$$

ARZ036-191700-
EAST ARKANSAS

CITY           SKY/WX    TMP DP  RH WIND       PRES   REMARKS
WEST MEMPHIS   MOSUNNY   60  46  59 VRB6      30.23F
$$

ARZ050-053-066-070-073-191700-
SOUTHWEST ARKANSAS

CITY           SKY/WX    TMP DP  RH WIND       PRES   REMARKS
ARKADELPHIA    FAIR      62  51  67 CALM      30.24F
CAMDEN         SUNNY     64  46  52 NE8       30.23S
TEXARKANA      SUNNY     62  49  62 E6        30.22S
EL DORADO      SUNNY     64  48  56 E10       30.22S
DE QUEEN       SUNNY     62  50  64 E8        30.21S
$$

ARZ056-057-069-191700-
SOUTHEAST ARKANSAS

CITY           SKY/WX    TMP DP  RH WIND       PRES   REMARKS
PINE BLUFF     SUNNY     62  47  57 VRB6      30.24S
STUTTGART      SUNNY     61  46  59 E7        30.24F
MONTICELLO     SUNNY     63  48  58 VRB7      30.22S

$$





USA.gov is the U.S. government's official web portal to all federal, state and local government web resources and services.